When you browse on this site, cookies collect data to enhance your experience and personalize the content and advertising you see.
Visit our Privacy Policy to learn more. By continuing to use the site, you agree to this use of cookies and data.
  • In Hungary
  • List of Countries
  • For 7 days
  • Water Temperature
  • Weather Map
  • News
  • Weather Widgets
  • user-avatar
    Login

    Hourly Weather Dobrich

    Today, 3 June, Wednesday

    Time Temperature Precipitation Wind Pressure Humidity
    00:00 +10°C° 0.2 mm 1 mps 733 mmHg 94%
    01:00 +10°C° 0.2 mm 1 mps 733 mmHg 94%
    02:00 +9°C° 0.2 mm 1 mps 733 mmHg 95%
    03:00 +9°C° 0 mm 1 mps 733 mmHg 95%
    04:00 +9°C° 0 mm 1 mps 733 mmHg 95%
    05:00 +8°C° 0 mm 2 mps 732 mmHg 95%
    06:00 +10°C° 0 mm 2 mps 733 mmHg 88%
    07:00 +12°C° 0 mm 2 mps 733 mmHg 81%
    08:00 +14°C° 0 mm 2 mps 734 mmHg 73%
    09:00 +15°C° 0 mm 2 mps 734 mmHg 65%
    10:00 +17°C° 0 mm 2 mps 734 mmHg 58%
    11:00 +18°C° 0 mm 2 mps 734 mmHg 50%
    12:00 +19°C° 0 mm 2 mps 734 mmHg 48%
    13:00 +19°C° 0 mm 2 mps 734 mmHg 47%
    14:00 +20°C° 0 mm 2 mps 734 mmHg 46%
    15:00 +19°C° 0 mm 3 mps 734 mmHg 50%
    16:00 +19°C° 0 mm 3 mps 733 mmHg 55%
    17:00 +18°C° 0 mm 4 mps 733 mmHg 60%
    18:00 +17°C° 0 mm 4 mps 733 mmHg 67%
    19:00 +14°C° 0 mm 3 mps 733 mmHg 75%
    20:00 +12°C° 0 mm 3 mps 733 mmHg 82%
    21:00 +12°C° 0 mm 3 mps 733 mmHg 84%
    22:00 +11°C° 0 mm 3 mps 733 mmHg 85%
    23:00 +11°C° 0 mm 3 mps 734 mmHg 87%

    Tomorrow, 4 June, Thursday

    Time Temperature Precipitation Wind Pressure Humidity
    00:00 +11°C° 0.1 mm 3 mps 733 mmHg 88%
    01:00 +11°C° 0.1 mm 3 mps 733 mmHg 88%
    02:00 +11°C° 0.1 mm 3 mps 733 mmHg 89%
    03:00 +11°C° 0 mm 3 mps 733 mmHg 89%
    04:00 +12°C° 0 mm 2 mps 733 mmHg 89%
    05:00 +12°C° 0 mm 2 mps 733 mmHg 88%
    06:00 +14°C° 0 mm 2 mps 733 mmHg 82%
    07:00 +16°C° 0 mm 2 mps 733 mmHg 75%
    08:00 +18°C° 0 mm 3 mps 734 mmHg 68%
    09:00 +19°C° 0.1 mm 3 mps 734 mmHg 64%
    10:00 +20°C° 0.1 mm 4 mps 734 mmHg 60%
    11:00 +22°C° 0.1 mm 4 mps 734 mmHg 55%
    12:00 +22°C° 0.2 mm 5 mps 734 mmHg 54%
    13:00 +23°C° 0.2 mm 5 mps 734 mmHg 53%
    14:00 +23°C° 0.2 mm 5 mps 734 mmHg 52%
    15:00 +23°C° 0 mm 5 mps 734 mmHg 53%
    16:00 +23°C° 0 mm 4 mps 734 mmHg 55%
    17:00 +23°C° 0 mm 4 mps 734 mmHg 56%
    18:00 +22°C° 0 mm 4 mps 734 mmHg 63%
    19:00 +20°C° 0 mm 3 mps 734 mmHg 70%
    20:00 +18°C° 0 mm 3 mps 734 mmHg 77%
    21:00 +17°C° 0 mm 3 mps 734 mmHg 78%
    22:00 +17°C° 0 mm 3 mps 735 mmHg 79%
    23:00 +16°C° 0 mm 3 mps 735 mmHg 79%

    Day after tomorrow, 5 June, Friday

    Time Temperature Precipitation Wind Pressure Humidity
    00:00 +16°C° 0 mm 3 mps 735 mmHg 81%
    01:00 +16°C° 0 mm 3 mps 735 mmHg 82%
    02:00 +14°C° 0 mm 3 mps 735 mmHg 83%
    03:00 +14°C° 0 mm 3 mps 735 mmHg 84%
    04:00 +14°C° 0 mm 3 mps 735 mmHg 85%
    05:00 +14°C° 0 mm 3 mps 735 mmHg 86%
    06:00 +17°C° 0 mm 4 mps 735 mmHg 81%
    07:00 +18°C° 0 mm 4 mps 735 mmHg 76%
    08:00 +20°C° 0 mm 5 mps 735 mmHg 71%
    09:00 +21°C° 0 mm 5 mps 735 mmHg 68%
    10:00 +23°C° 0 mm 6 mps 736 mmHg 65%
    11:00 +24°C° 0 mm 7 mps 736 mmHg 63%
    12:00 +24°C° 0 mm 7 mps 736 mmHg 60%
    13:00 +26°C° 0 mm 8 mps 735 mmHg 58%
    14:00 +27°C° 0 mm 8 mps 735 mmHg 55%
    15:00 +26°C° 0 mm 7 mps 735 mmHg 57%
    16:00 +26°C° 0 mm 7 mps 735 mmHg 58%
    17:00 +26°C° 0 mm 7 mps 735 mmHg 59%
    18:00 +23°C° 0 mm 6 mps 735 mmHg 61%
    19:00 +21°C° 0 mm 6 mps 735 mmHg 63%
    20:00 +20°C° 0 mm 5 mps 735 mmHg 65%
    21:00 +19°C° 0 mm 5 mps 735 mmHg 64%
    22:00 +17°C° 0 mm 5 mps 735 mmHg 63%
    23:00 +17°C° 0 mm 5 mps 735 mmHg 62%

    6 June, Saturday

    Time Temperature Precipitation Wind Pressure Humidity
    00:00 +16°C° 0 mm 5 mps 735 mmHg 64%
    01:00 +16°C° 0 mm 5 mps 735 mmHg 65%
    02:00 +15°C° 0 mm 5 mps 735 mmHg 67%
    03:00 +15°C° 0 mm 5 mps 735 mmHg 68%
    04:00 +15°C° 0 mm 5 mps 735 mmHg 68%
    05:00 +14°C° 0 mm 5 mps 735 mmHg 69%
    06:00 +16°C° 0 mm 5 mps 736 mmHg 68%
    07:00 +17°C° 0 mm 5 mps 736 mmHg 67%
    08:00 +20°C° 0 mm 5 mps 736 mmHg 66%
    09:00 +21°C° 0 mm 5 mps 737 mmHg 64%
    10:00 +22°C° 0 mm 5 mps 737 mmHg 61%
    11:00 +25°C° 0 mm 5 mps 737 mmHg 59%
    12:00 +26°C° 0 mm 5 mps 737 mmHg 57%
    13:00 +26°C° 0 mm 5 mps 737 mmHg 54%
    14:00 +27°C° 0 mm 5 mps 737 mmHg 51%
    15:00 +27°C° 0 mm 5 mps 737 mmHg 54%
    16:00 +26°C° 0 mm 5 mps 736 mmHg 56%
    17:00 +26°C° 0 mm 5 mps 736 mmHg 58%
    18:00 +23°C° 0 mm 5 mps 736 mmHg 61%
    19:00 +21°C° 0 mm 4 mps 736 mmHg 65%
    20:00 +20°C° 0 mm 3 mps 736 mmHg 68%
    21:00 +19°C° 0 mm 3 mps 737 mmHg 66%
    22:00 +18°C° 0 mm 3 mps 737 mmHg 63%
    23:00 +18°C° 0 mm 3 mps 737 mmHg 61%

    7 June, Sunday

    Time Temperature Precipitation Wind Pressure Humidity
    00:00 +17°C° 0 mm 3 mps 737 mmHg 62%
    01:00 +17°C° 0 mm 3 mps 737 mmHg 64%
    02:00 +17°C° 0 mm 3 mps 737 mmHg 65%
    03:00 +17°C° 0 mm 2 mps 737 mmHg 64%
    04:00 +17°C° 0 mm 2 mps 737 mmHg 63%
    05:00 +17°C° 0 mm 2 mps 737 mmHg 62%
    06:00 +19°C° 0 mm 2 mps 737 mmHg 58%
    07:00 +21°C° 0 mm 2 mps 737 mmHg 54%
    08:00 +24°C° 0 mm 1 mps 737 mmHg 50%
    09:00 +26°C° 0 mm 2 mps 738 mmHg 47%
    10:00 +27°C° 0 mm 2 mps 738 mmHg 44%
    11:00 +28°C° 0 mm 2 mps 738 mmHg 42%
    12:00 +29°C° 0 mm 2 mps 738 mmHg 42%
    13:00 +29°C° 0 mm 2 mps 737 mmHg 42%
    14:00 +29°C° 0 mm 2 mps 737 mmHg 42%
    15:00 +29°C° 0 mm 2 mps 737 mmHg 45%
    16:00 +28°C° 0 mm 3 mps 736 mmHg 49%
    17:00 +28°C° 0 mm 3 mps 736 mmHg 52%
    18:00 +25°C° 0 mm 2 mps 736 mmHg 59%
    19:00 +23°C° 0 mm 2 mps 736 mmHg 65%
    20:00 +19°C° 0 mm 2 mps 736 mmHg 72%
    21:00 +19°C° 0 mm 2 mps 736 mmHg 70%
    22:00 +19°C° 0 mm 2 mps 736 mmHg 67%
    23:00 +18°C° 0 mm 2 mps 736 mmHg 64%

    8 June, Monday

    Time Temperature Precipitation Wind Pressure Humidity
    00:00 +18°C° 0 mm 2 mps 736 mmHg 63%
    01:00 +19°C° 0 mm 1 mps 736 mmHg 62%
    02:00 +19°C° 0 mm 1 mps 735 mmHg 61%
    03:00 +19°C° 0 mm 1 mps 735 mmHg 62%
    04:00 +19°C° 0 mm 1 mps 735 mmHg 63%
    05:00 +18°C° 0 mm 1 mps 735 mmHg 64%
    06:00 +20°C° 0 mm 1 mps 735 mmHg 61%
    07:00 +22°C° 0 mm 1 mps 735 mmHg 57%
    08:00 +24°C° 0 mm 1 mps 736 mmHg 54%
    09:00 +25°C° 0 mm 1 mps 736 mmHg 51%
    10:00 +27°C° 0 mm 2 mps 736 mmHg 48%
    11:00 +28°C° 0 mm 2 mps 736 mmHg 45%
    12:00 +28°C° 0 mm 2 mps 736 mmHg 45%
    13:00 +28°C° 0 mm 2 mps 736 mmHg 45%
    14:00 +29°C° 0 mm 3 mps 736 mmHg 45%
    15:00 +28°C° 0 mm 3 mps 735 mmHg 48%
    16:00 +28°C° 0 mm 3 mps 735 mmHg 50%
    17:00 +27°C° 0 mm 3 mps 735 mmHg 52%
    18:00 +25°C° 0 mm 3 mps 735 mmHg 58%
    19:00 +22°C° 0 mm 3 mps 734 mmHg 65%
    20:00 +19°C° 0 mm 2 mps 734 mmHg 71%
    21:00 +19°C° 0 mm 2 mps 734 mmHg 71%
    22:00 +18°C° 0 mm 2 mps 735 mmHg 70%
    23:00 +18°C° 0 mm 1 mps 735 mmHg 70%
    Show more